| time (UTC) | temp F | wind direction | speed MPH | gust MPH | rain 1hr in | rain 24hr in | rain mn in | humidity % | barometer mb |
| 20260902204502 | 88 | 248 | 11.0 | 17.0 | 0.00 | 0.00 | 0.00 | 25 | 1021.8 |
| 20260902203003 | 87 | 207 | 8.0 | 13.0 | 0.00 | 0.00 | 0.00 | 26 | 1021.9 |
| 20260902201502 | 87 | 277 | 6.0 | 15.0 | 0.00 | 0.00 | 0.00 | 26 | 1022.2 |
| 20260902200003 | 87 | 279 | 8.0 | 14.0 | 0.00 | 0.00 | 0.00 | 28 | 1022.4 |
| 20260902194501 | 85 | 227 | 8.0 | 18.0 | 0.00 | 0.00 | 0.00 | 28 | 1022.6 |
| 20260902193002 | 85 | 42 | 5.0 | 14.0 | 0.00 | 0.00 | 0.00 | 30 | 1022.9 |
| 20260902191502 | 85 | 288 | 8.0 | 13.0 | 0.00 | 0.00 | 0.00 | 29 | 1022.9 |
| 20260902190000 | 85 | 294 | 5.0 | 8.0 | 0.00 | 0.00 | 0.00 | 30 | 1023.1 |
| 20260902184500 | 84 | 255 | 9.0 | 12.0 | 0.00 | 0.00 | 0.00 | 31 | 1023.4 |
| 20260902180006 | 83 | 294 | 8.0 | 14.0 | 0.00 | 0.00 | 0.00 | 31 | 1024.0 |
| 20260902174501 | 83 | 267 | 6.0 | 11.0 | 0.00 | 0.00 | 0.00 | 32 | 1024.2 |
| 20260902173002 | 82 | 271 | 5.0 | 13.0 | 0.00 | 0.00 | 0.00 | 32 | 1024.2 |
| 20260902164501 | 79 | 287 | 7.0 | 13.0 | 0.00 | 0.00 | 0.00 | 35 | 1024.6 |
| 20260902163001 | 79 | 309 | 8.0 | 13.0 | 0.00 | 0.00 | 0.00 | 35 | 1024.5 |
| 20260902161502 | 78 | 284 | 7.0 | 13.0 | 0.00 | 0.00 | 0.00 | 36 | 1024.3 |
| 20260902160000 | 77 | 292 | 8.0 | 17.0 | 0.00 | 0.00 | 0.00 | 38 | 1024.2 |
| 20260902154500 | 76 | 304 | 8.0 | 15.0 | 0.00 | 0.00 | 0.00 | 38 | 1024.2 |
| 20260902153000 | 74 | 331 | 7.0 | 14.0 | 0.00 | 0.00 | 0.00 | 42 | 1024.2 |
| 20260902150004 | 72 | 290 | 5.0 | 7.0 | 0.00 | 0.00 | 0.00 | 56 | 1024.2 |
| 20260902144502 | 71 | 267 | 4.0 | 6.0 | 0.00 | 0.00 | 0.00 | 57 | 1024.1 |
| 20260902143000 | 69 | 40 | 1.0 | 3.0 | 0.00 | 0.00 | 0.00 | 62 | 1023.9 |
| 20260902141502 | 67 | 40 | 1.0 | 3.0 | 0.00 | 0.00 | 0.00 | 65 | 1024.0 |
| 20260902140000 | 65 | 106 | 4.0 | 7.0 | 0.00 | 0.00 | 0.00 | 68 | 1024.0 |
| 20260902134500 | 64 | 53 | 6.0 | 10.0 | 0.00 | 0.00 | 0.00 | 70 | 1023.9 |
| 20260902132959 | 63 | 36 | 7.0 | 11.0 | 0.00 | 0.00 | 0.00 | 72 | 1023.7 |
| 20260902131500 | 62 | 69 | 5.0 | 8.0 | 0.00 | 0.00 | 0.00 | 73 | 1023.5 |
| 20260902130000 | 62 | 70 | 6.0 | 9.0 | 0.00 | 0.00 | 0.00 | 73 | 1023.5 |
| 20260902124500 | 62 | 87 | 7.0 | 10.0 | 0.00 | 0.00 | 0.00 | 72 | 1023.3 |
| 20260902121500 | 62 | 69 | 8.0 | 12.0 | 0.00 | 0.00 | 0.00 | 72 | 1023.0 |
| 20260902120002 | 63 | 29 | 6.0 | 9.0 | 0.00 | 0.00 | 0.00 | 71 | 1023.0 |
| 20260902114500 | 63 | 105 | 7.0 | 11.0 | 0.00 | 0.00 | 0.00 | 70 | 1022.9 |
| 20260902113000 | 63 | 61 | 9.0 | 12.0 | 0.00 | 0.00 | 0.00 | 71 | 1022.7 |
| 20260902110000 | 63 | 59 | 8.0 | 11.0 | 0.00 | 0.00 | 0.00 | 71 | 1022.4 |
| 20260902104500 | 64 | 94 | 8.0 | 12.0 | 0.00 | 0.00 | 0.00 | 70 | 1022.4 |
| 20260902101458 | 64 | 95 | 8.0 | 12.0 | 0.00 | 0.00 | 0.00 | 70 | 1022.5 |
| 20260902092959 | 66 | 68 | 8.0 | 11.0 | 0.00 | 0.00 | 0.00 | 68 | 1022.6 |
| 20260902091459 | 66 | 65 | 6.0 | 10.0 | 0.00 | 0.00 | 0.00 | 67 | 1022.8 |
| 20260902090002 | 66 | 64 | 7.0 | 10.0 | 0.00 | 0.00 | 0.00 | 67 | 1022.8 |
| 20260902084501 | 67 | 41 | 5.0 | 8.0 | 0.00 | 0.00 | 0.00 | 66 | 1022.9 |
| 20260902083000 | 67 | 88 | 4.0 | 8.0 | 0.00 | 0.00 | 0.00 | 64 | 1022.8 |
| 20260902080001 | 68 | 71 | 3.0 | 7.0 | 0.00 | 0.00 | 0.00 | 65 | 1022.8 |
| 20260902074500 | 68 | 60 | 1.0 | 2.0 | 0.00 | 0.00 | 0.00 | 64 | 1022.9 |
| 20260902073000 | 69 | 78 | 5.0 | 7.0 | 0.00 | 0.00 | 0.00 | 64 | 1022.9 |
| 20260902064501 | 70 | 69 | 3.0 | 5.0 | 0.00 | 0.00 | 0.00 | 60 | 1022.7 |
| 20260902063002 | 70 | 96 | 3.0 | 7.0 | 0.00 | 0.00 | 0.00 | 59 | 1022.7 |
| 20260902061501 | 71 | 95 | 2.0 | 5.0 | 0.00 | 0.00 | 0.00 | 58 | 1022.7 |
| 20260902060007 | 71 | 85 | 4.0 | 7.0 | 0.00 | 0.00 | 0.00 | 58 | 1022.6 |
| 20260902054503 | 71 | 52 | 3.0 | 5.0 | 0.00 | 0.00 | 0.00 | 57 | 1022.6 |
| 20260902051504 | 71 | 84 | 5.0 | 7.0 | 0.00 | 0.00 | 0.00 | 57 | 1022.6 |
| 20260902050006 | 72 | 60 | 2.0 | 3.0 | 0.00 | 0.00 | 0.00 | 56 | 1022.8 |
| 20260902043002 | 73 | 107 | 1.0 | 3.0 | 0.00 | 0.00 | 0.00 | 53 | 1022.9 |
| 20260902041503 | 73 | 107 | 1.0 | 2.0 | 0.00 | 0.00 | 0.00 | 53 | 1022.9 |
| 20260902040002 | 74 | 107 | 0.0 | 1.0 | 0.00 | 0.00 | 0.00 | 53 | 1022.9 |
| 20260902034502 | 74 | 107 | 0.0 | 0.0 | 0.00 | 0.00 | 0.00 | 50 | 1022.7 |
| 20260902033002 | 75 | 107 | 0.0 | 1.0 | 0.00 | 0.00 | 0.00 | 50 | 1022.4 |
| 20260902031502 | 75 | 107 | 1.0 | 3.0 | 0.00 | 0.00 | 0.00 | 48 | 1022.4 |
| 20260902030004 | 75 | 214 | 0.0 | 2.0 | 0.00 | 0.00 | 0.00 | 47 | 1022.1 |
| 20260902024503 | 76 | 214 | 1.0 | 2.0 | 0.00 | 0.07 | 0.00 | 46 | 1021.8 |
| 20260902020004 | 77 | 241 | 1.0 | 2.0 | 0.00 | 0.07 | 0.00 | 44 | 1021.2 |
| 20260902014504 | 77 | 267 | 3.0 | 5.0 | 0.00 | 0.07 | 0.00 | 42 | 1021.2 |
| 20260902013003 | 78 | 259 | 5.0 | 8.0 | 0.00 | 0.07 | 0.00 | 41 | 1021.1 |
| 20260902011502 | 79 | 240 | 6.0 | 12.0 | 0.00 | 0.07 | 0.00 | 40 | 1021.1 |
| 20260902010001 | 79 | 238 | 5.0 | 8.0 | 0.00 | 0.07 | 0.00 | 40 | 1021.1 |
| 20260902004501 | 79 | 238 | 5.0 | 9.0 | 0.00 | 0.07 | 0.00 | 38 | 1021.1 |
| 20260902003002 | 80 | 227 | 5.0 | 8.0 | 0.00 | 0.07 | 0.00 | 38 | 1021.1 |
| 20260902001501 | 80 | 248 | 5.0 | 9.0 | 0.00 | 0.07 | 0.00 | 37 | 1021.1 |
| 20260902000001 | 80 | 198 | 6.0 | 8.0 | 0.00 | 0.07 | 0.00 | 36 | 1021.1 |
| 20260901234501 | 80 | 271 | 6.0 | 8.0 | 0.00 | 0.07 | 0.00 | 36 | 1021.1 |
| 20260901233001 | 81 | 248 | 5.0 | 9.0 | 0.00 | 0.07 | 0.00 | 35 | 1021.1 |
| 20260901231502 | 81 | 275 | 5.0 | 8.0 | 0.00 | 0.07 | 0.00 | 35 | 1021.1 |
| 20260901230004 | 81 | 232 | 6.0 | 12.0 | 0.00 | 0.07 | 0.00 | 33 | 1021.1 |
| 20260901224503 | 82 | 226 | 6.0 | 13.0 | 0.00 | 0.07 | 0.00 | 35 | 1021.1 |
| 20260901223003 | 84 | 220 | 6.0 | 17.0 | 0.00 | 0.07 | 0.00 | 34 | 1021.2 |
| 20260901220003 | 84 | 284 | 6.0 | 16.0 | 0.00 | 0.07 | 0.00 | 35 | 1021.7 |
| 20260901214501 | 84 | 267 | 6.0 | 13.0 | 0.00 | 0.07 | 0.00 | 35 | 1021.7 |
| 20260901213001 | 83 | 290 | 6.0 | 12.0 | 0.00 | 0.07 | 0.00 | 35 | 1021.8 |
| 20260901211502 | 83 | 279 | 6.0 | 14.0 | 0.00 | 0.07 | 0.00 | 37 | 1022.1 |